timestamp,wind_dir_avg,wind_spd_max_dir,wind_spd_avg,wind_spd_gust,battery_voltage,lat,long
2018-01-05 00:00:00+00:00,119.0,134.0,6.64,12.16,,47.59359,-54.27349
2018-01-05 00:10:00+00:00,112.0,108.0,7.22,12.89,,47.59359,-54.27349
2018-01-05 00:20:00+00:00,107.0,108.0,7.15,10.53,,47.59359,-54.27349
2018-01-05 00:30:00+00:00,110.0,84.0,6.94,12.01,,47.59359,-54.27349
2018-01-05 00:40:00+00:00,117.0,115.0,8.19,12.84,,47.59359,-54.27349
2018-01-05 00:50:00+00:00,123.0,104.0,10.65,15.14,,47.59359,-54.27349
2018-01-05 01:00:00+00:00,121.0,82.0,7.85,12.56,,47.59359,-54.27349
2018-01-05 01:10:00+00:00,113.0,133.0,8.08,14.98,,47.59359,-54.27349
2018-01-05 01:20:00+00:00,118.0,122.0,9.75,17.44,,47.59359,-54.27349
2018-01-05 01:30:00+00:00,108.0,144.0,7.6,12.66,,47.59359,-54.27349
2018-01-05 01:40:00+00:00,125.0,123.0,8.7,13.87,,47.59359,-54.27349
2018-01-05 01:50:00+00:00,122.0,135.0,8.95,15.22,,47.59359,-54.27349
2018-01-05 02:00:00+00:00,112.0,114.0,7.74,13.52,,47.59359,-54.27349
2018-01-05 02:10:00+00:00,106.0,134.0,7.23,11.03,,47.59359,-54.27349
2018-01-05 02:20:00+00:00,112.0,125.0,6.16,10.92,,47.59359,-54.27349
2018-01-05 02:30:00+00:00,114.0,102.0,8.16,12.8,,47.59359,-54.27349
2018-01-05 02:40:00+00:00,118.0,126.0,9.44,15.96,,47.59359,-54.27349
2018-01-05 02:50:00+00:00,104.0,123.0,6.9,10.36,,47.59359,-54.27349
2018-01-05 03:00:00+00:00,116.0,125.0,4.95,9.08,,47.59359,-54.27349
2018-01-05 03:10:00+00:00,113.0,123.0,6.68,10.84,,47.59359,-54.27349
2018-01-05 03:20:00+00:00,111.0,131.0,4.74,8.98,,47.59359,-54.27349
2018-01-05 03:30:00+00:00,121.0,129.0,5.7,10.8,,47.59359,-54.27349
2018-01-05 03:40:00+00:00,119.0,134.0,3.71,6.19,,47.59359,-54.27349
2018-01-05 03:50:00+00:00,118.0,132.0,6.53,10.28,,47.59359,-54.27349
2018-01-05 04:00:00+00:00,105.0,107.0,5.48,9.4,,47.59359,-54.27349
2018-01-05 04:10:00+00:00,93.0,94.0,5.74,9.11,,47.59359,-54.27349
2018-01-05 04:20:00+00:00,109.0,118.0,3.12,5.14,,47.59359,-54.27349
2018-01-05 04:30:00+00:00,111.0,125.0,5.93,8.61,,47.59359,-54.27349
2018-01-05 04:40:00+00:00,99.0,111.0,5.15,8.25,,47.59359,-54.27349
2018-01-05 04:50:00+00:00,113.0,141.0,4.76,7.09,,47.59359,-54.27349
2018-01-05 05:00:00+00:00,130.0,140.0,6.85,10.53,,47.59359,-54.27349
2018-01-05 05:10:00+00:00,121.0,107.0,5.77,9.63,,47.59359,-54.27349
2018-01-05 05:20:00+00:00,132.0,120.0,8.49,11.27,,47.59359,-54.27349
2018-01-05 05:30:00+00:00,133.0,129.0,10.88,14.85,,47.59359,-54.27349
2018-01-05 05:40:00+00:00,128.0,122.0,7.14,11.13,,47.59359,-54.27349
2018-01-05 05:50:00+00:00,123.0,143.0,6.23,9.56,,47.59359,-54.27349
2018-01-05 06:00:00+00:00,121.0,134.0,4.28,6.96,,47.59359,-54.27349
2018-01-05 06:10:00+00:00,92.0,85.0,4.67,8.42,,47.59359,-54.27349
2018-01-05 06:20:00+00:00,113.0,88.0,3.13,4.71,,47.59359,-54.27349
2018-01-05 06:30:00+00:00,95.0,99.0,4.64,7.59,,47.59359,-54.27349
2018-01-05 06:40:00+00:00,117.0,127.0,5.36,8.24,,47.59359,-54.27349
2018-01-05 06:50:00+00:00,111.0,138.0,4.09,6.49,,47.59359,-54.27349
2018-01-05 07:00:00+00:00,112.0,119.0,4.01,6.28,,47.59359,-54.27349
2018-01-05 07:10:00+00:00,103.0,101.0,3.68,5.81,,47.59359,-54.27349
2018-01-05 07:20:00+00:00,121.0,140.0,3.27,7.36,,47.59359,-54.27349
2018-01-05 07:30:00+00:00,79.0,75.0,3.39,5.43,,47.59359,-54.27349
2018-01-05 07:40:00+00:00,70.0,66.0,3.39,5.35,,47.59359,-54.27349
2018-01-05 07:50:00+00:00,46.0,47.0,5.77,6.8,,47.59359,-54.27349
2018-01-05 08:00:00+00:00,69.0,78.0,7.0,9.42,,47.59359,-54.27349
2018-01-05 08:10:00+00:00,84.0,77.0,4.17,5.47,,47.59359,-54.27349
2018-01-05 08:20:00+00:00,76.0,85.0,2.84,3.8,,47.59359,-54.27349
2018-01-05 09:00:00+00:00,53.0,53.0,4.68,5.28,,47.59359,-54.27349
2018-01-05 09:20:00+00:00,49.0,49.0,5.49,6.05,,47.59359,-54.27349
2018-01-05 09:30:00+00:00,71.0,71.0,5.36,5.67,,47.59359,-54.27349
2018-01-05 09:40:00+00:00,71.0,73.0,4.16,4.49,,47.59359,-54.27349
2018-01-05 09:50:00+00:00,43.0,42.0,5.58,5.97,,47.59359,-54.27349
2018-01-05 10:00:00+00:00,48.0,50.0,5.85,6.26,,47.59359,-54.27349
2018-01-05 10:10:00+00:00,70.0,63.0,4.05,4.79,,47.59359,-54.27349
2018-01-05 10:20:00+00:00,64.0,61.0,5.05,6.3,,47.59359,-54.27349
2018-01-05 10:30:00+00:00,68.0,69.0,4.96,5.33,,47.59359,-54.27349
2018-01-05 10:40:00+00:00,76.0,128.0,3.54,5.98,,47.59359,-54.27349
2018-01-05 10:50:00+00:00,104.0,91.0,1.72,2.45,,47.59359,-54.27349
2018-01-05 11:00:00+00:00,178.0,189.0,4.06,7.66,,47.59359,-54.27349
2018-01-05 11:10:00+00:00,34.0,293.0,0.87,2.42,,47.59359,-54.27349
2018-01-05 11:20:00+00:00,323.0,313.0,1.48,1.88,,47.59359,-54.27349
2018-01-05 11:30:00+00:00,299.0,309.0,1.12,1.92,,47.59359,-54.27349
2018-01-05 11:40:00+00:00,235.0,232.0,5.04,7.65,,47.59359,-54.27349
2018-01-05 11:50:00+00:00,211.0,213.0,7.95,9.43,,47.59359,-54.27349
2018-01-05 12:00:00+00:00,217.0,213.0,12.67,16.02,,47.59359,-54.27349
2018-01-05 12:10:00+00:00,224.0,220.0,15.85,19.49,,47.59359,-54.27349
2018-01-05 12:20:00+00:00,228.0,225.0,16.07,19.5,,47.59359,-54.27349
2018-01-05 12:30:00+00:00,228.0,227.0,15.96,19.46,,47.59359,-54.27349
2018-01-05 12:40:00+00:00,230.0,230.0,13.37,16.71,,47.59359,-54.27349
2018-01-05 12:50:00+00:00,234.0,238.0,9.6,15.1,,47.59359,-54.27349
2018-01-05 13:00:00+00:00,223.0,224.0,12.46,13.69,,47.59359,-54.27349
2018-01-05 13:10:00+00:00,226.0,229.0,10.02,10.63,,47.59359,-54.27349
2018-01-05 13:20:00+00:00,225.0,226.0,10.74,11.74,,47.59359,-54.27349
2018-01-05 13:30:00+00:00,221.0,218.0,14.15,16.45,,47.59359,-54.27349
2018-01-05 13:40:00+00:00,223.0,225.0,12.36,14.8,,47.59359,-54.27349
2018-01-05 13:50:00+00:00,229.0,235.0,11.4,14.46,,47.59359,-54.27349
2018-01-05 14:00:00+00:00,218.0,222.0,11.88,13.59,,47.59359,-54.27349
2018-01-05 14:10:00+00:00,220.0,219.0,11.64,13.29,,47.59359,-54.27349
2018-01-05 14:20:00+00:00,216.0,218.0,13.67,15.91,,47.59359,-54.27349
2018-01-05 14:30:00+00:00,222.0,226.0,13.28,15.11,,47.59359,-54.27349
2018-01-05 14:40:00+00:00,229.0,231.0,13.19,15.25,,47.59359,-54.27349
2018-01-05 14:50:00+00:00,229.0,230.0,13.33,15.6,,47.59359,-54.27349
2018-01-05 15:00:00+00:00,233.0,235.0,11.91,13.95,,47.59359,-54.27349
2018-01-05 15:10:00+00:00,232.0,229.0,10.7,12.37,,47.59359,-54.27349
2018-01-05 15:20:00+00:00,231.0,231.0,9.78,11.94,,47.59359,-54.27349
2018-01-05 15:30:00+00:00,229.0,230.0,10.77,13.19,,47.59359,-54.27349
2018-01-05 15:40:00+00:00,226.0,221.0,12.47,15.55,,47.59359,-54.27349
2018-01-05 15:50:00+00:00,229.0,222.0,9.95,11.01,,47.59359,-54.27349
2018-01-05 16:00:00+00:00,224.0,222.0,11.95,13.43,,47.59359,-54.27349
2018-01-05 16:10:00+00:00,224.0,229.0,12.6,14.29,,47.59359,-54.27349
2018-01-05 16:20:00+00:00,221.0,226.0,11.95,14.18,,47.59359,-54.27349
2018-01-05 16:30:00+00:00,219.0,225.0,12.35,14.3,,47.59359,-54.27349
2018-01-05 16:40:00+00:00,222.0,227.0,11.91,13.93,,47.59359,-54.27349
2018-01-05 16:50:00+00:00,222.0,224.0,11.84,14.25,,47.59359,-54.27349
2018-01-05 17:00:00+00:00,219.0,221.0,11.21,12.77,,47.59359,-54.27349
2018-01-05 17:10:00+00:00,216.0,217.0,11.19,12.62,,47.59359,-54.27349
2018-01-05 17:20:00+00:00,218.0,211.0,10.81,12.76,,47.59359,-54.27349
2018-01-05 17:30:00+00:00,222.0,220.0,8.9,9.81,,47.59359,-54.27349
2018-01-05 17:40:00+00:00,226.0,228.0,11.76,13.88,,47.59359,-54.27349
2018-01-05 17:50:00+00:00,228.0,228.0,13.91,16.76,,47.59359,-54.27349
2018-01-05 18:00:00+00:00,224.0,225.0,12.26,14.35,,47.59359,-54.27349
2018-01-05 18:10:00+00:00,228.0,224.0,11.27,13.69,,47.59359,-54.27349
2018-01-05 18:20:00+00:00,223.0,222.0,11.33,12.57,,47.59359,-54.27349
2018-01-05 18:30:00+00:00,226.0,230.0,11.5,13.65,,47.59359,-54.27349
2018-01-05 18:40:00+00:00,227.0,219.0,11.25,12.98,,47.59359,-54.27349
2018-01-05 18:50:00+00:00,228.0,229.0,10.3,12.08,,47.59359,-54.27349
2018-01-05 19:00:00+00:00,219.0,218.0,8.81,10.14,,47.59359,-54.27349
2018-01-05 19:10:00+00:00,224.0,228.0,9.52,11.32,,47.59359,-54.27349
2018-01-05 19:20:00+00:00,226.0,225.0,9.3,10.58,,47.59359,-54.27349
2018-01-05 19:30:00+00:00,226.0,226.0,9.0,10.42,,47.59359,-54.27349
2018-01-05 19:40:00+00:00,226.0,225.0,9.44,10.3,,47.59359,-54.27349
2018-01-05 19:50:00+00:00,222.0,220.0,7.52,8.41,,47.59359,-54.27349
2018-01-05 20:00:00+00:00,225.0,233.0,8.45,10.01,,47.59359,-54.27349
2018-01-05 20:10:00+00:00,231.0,236.0,6.69,7.88,,47.59359,-54.27349
2018-01-05 20:20:00+00:00,227.0,226.0,9.02,10.09,,47.59359,-54.27349
2018-01-05 20:30:00+00:00,233.0,228.0,8.39,9.67,,47.59359,-54.27349
2018-01-05 20:40:00+00:00,229.0,232.0,9.37,10.83,,47.59359,-54.27349
2018-01-05 20:50:00+00:00,219.0,224.0,9.85,10.87,,47.59359,-54.27349
2018-01-05 21:00:00+00:00,231.0,229.0,9.0,10.8,,47.59359,-54.27349
2018-01-05 21:10:00+00:00,231.0,229.0,7.76,8.89,,47.59359,-54.27349
2018-01-05 21:20:00+00:00,230.0,230.0,8.46,9.48,,47.59359,-54.27349
2018-01-05 21:30:00+00:00,236.0,232.0,5.76,6.84,,47.59359,-54.27349
2018-01-05 21:40:00+00:00,239.0,248.0,4.24,5.59,,47.59359,-54.27349
2018-01-05 21:50:00+00:00,271.0,273.0,5.27,5.67,,47.59359,-54.27349
2018-01-05 22:00:00+00:00,266.0,265.0,6.14,7.13,,47.59359,-54.27349
2018-01-05 22:10:00+00:00,268.0,271.0,6.73,7.9,,47.59359,-54.27349
2018-01-05 22:20:00+00:00,245.0,242.0,6.44,7.81,,47.59359,-54.27349
2018-01-05 22:30:00+00:00,238.0,243.0,8.97,10.63,,47.59359,-54.27349
2018-01-05 22:40:00+00:00,247.0,250.0,6.34,7.74,,47.59359,-54.27349
2018-01-05 22:50:00+00:00,254.0,267.0,5.35,6.74,,47.59359,-54.27349
2018-01-05 23:00:00+00:00,266.0,266.0,5.73,6.58,,47.59359,-54.27349
2018-01-05 23:10:00+00:00,256.0,262.0,4.67,5.76,,47.59359,-54.27349
2018-01-05 23:20:00+00:00,240.0,249.0,5.95,8.31,,47.59359,-54.27349
2018-01-05 23:30:00+00:00,227.0,229.0,8.17,9.08,,47.59359,-54.27349
2018-01-05 23:40:00+00:00,225.0,222.0,7.48,9.51,,47.59359,-54.27349
2018-01-05 23:50:00+00:00,247.0,231.0,10.36,13.09,,47.59359,-54.27349
